This demonstration page uses our WeatherBlox Daily Observations layout. Learn more.

40.92945, -100.16068

Hourly Observations for June 25, 2017

Temp ( °F °C ) Dew Point ( °F °C ) Humidity (%) Winds ( mph kmh ) Pressure ( in mb ) Visibility ( mi km ) Precip ( " mm )
12:15 am 00:15 Clear 55 12.6 44 6.7 68 68 SW 3 6 30.27 1025 10 16.0934 0 0
12:35 am 00:35 Clear 53 11.5 44 6.5 72 72 Calm 30.3 1026 10 16.0934 0 0
12:55 am 00:55 Clear 49 9.7 44 6.6 81 81 N 5 7 30.3 1026 10 16.0934 0 0
1:15 am 01:15 Clear 49 9.5 43 6.2 80 80 N 6 9 30.3 1026 10 16.0934 0 0
1:35 am 01:35 Clear 47 8.6 43 6 84 84 N 6 9 30.33 1027 10 16.0934 0 0
1:55 am 01:55 Clear 49 9.2 43 6.1 81 81 N 6 9 30.33 1027 10 16.0934 0 0
2:15 am 02:15 Clear 49 9.3 43 6 80 80 NNE 7 11 30.33 1027 10 16.0934 0 0
2:35 am 02:35 Clear 48 8.7 41 5.2 79 79 NE 7 11 30.33 1027 10 16.0934 0 0
2:55 am 02:55 Clear 50 10 42 5.4 73 73 NNE 9 15 30.3 1026 10 16.0934 0 0
3:15 am 03:15 Clear 52 11.1 40 4.6 65 65 NNE 9 15 30.3 1026 10 16.0934 0 0
3:35 am 03:35 Clear 51 10.7 41 4.9 68 68 NNE 9 15 30.33 1027 10 16.0934 0 0
3:55 am 03:55 Partly Cloudy 52 11 41 5 67 67 NNE 7 11 30.3 1026 10 16.0934 0 0
4:15 am 04:15 Partly Cloudy 52 11.3 41 5 65 65 NNE 8 13 30.33 1027 10 16.0934 0 0
4:35 am 04:35 Mostly Cloudy 54 12.4 40 4.7 60 60 NE 8 13 30.33 1027 10 16.0934 0 0
4:55 am 04:55 Cloudy 56 13.1 40 4.7 57 57 NE 7 11 30.3 1026 10 16.0934 0 0
5:15 am 05:15 Cloudy 56 13.3 40 4.7 56 56 ENE 7 11 30.3 1026 10 16.0934 0 0
5:35 am 05:35 Cloudy 56 13.3 41 5.2 58 58 ENE 3 6 30.33 1027 10 16.0934 0 0
5:55 am 05:55 Cloudy 55 13 42 5.6 61 61 E 3 6 30.36 1028 10 16.0934 0 0
6:15 am 06:15 Cloudy 55 13 42 5.8 62 62 NE 7 11 30.36 1028 10 16.0934 0 0
6:35 am 06:35 Cloudy 57 13.7 42 5.3 57 57 E 6 9 30.33 1027 10 16.0934 0 0
6:55 am 06:55 Cloudy 57 13.8 42 5.4 57 57 ENE 3 6 30.33 1027 10 16.0934 0 0
7:15 am 07:15 Cloudy 57 13.8 42 5.8 59 59 SE 3 6 30.33 1027 10 16.0934 0 0
7:35 am 07:35 Mostly Cloudy 57 14 43 5.9 58 58 SSW 3 6 30.33 1027 10 16.0934 0 0
7:55 am 07:55 Cloudy 57 13.7 45 7 64 64 Calm 30.36 1028 10 16.0934 0 0
8:15 am 08:15 Cloudy 57 13.9 44 6.6 62 62 ENE 3 6 30.36 1028 10 16.0934 0 0
8:35 am 08:35 Cloudy 57 13.8 44 6.8 63 63 E 5 7 30.36 1028 10 16.0934 0 0
8:55 am 08:55 Cloudy 57 13.8 44 6.9 63 63 NE 3 6 30.36 1028 10 16.0934 0 0
9:15 am 09:15 Cloudy 57 14 44 6.6 61 61 Calm 30.36 1028 10 16.0934 0 0
9:35 am 09:35 Cloudy 56 13.5 48 8.8 73 73 S 6 9 30.36 1028 10 16.0934 0 0
9:55 am 09:55 Cloudy with Light Rain 57 13.8 47 8.2 69 69 S 5 7 30.36 1028 10 16.0934 0 0
10:15 am 10:15 Cloudy with Light Rain 57 13.7 47 8.6 72 72 S 5 7 30.36 1028 10 16.0934 0 0
10:35 am 10:35 Mostly Cloudy 58 14.6 49 9.3 71 71 Calm 30.36 1028 10 16.0934 0 0
10:55 am 10:55 Partly Cloudy 60 15.8 49 9.3 66 66 Calm 30.36 1028 10 16.0934 0 0
11:15 am 11:15 Sunny 64 17.5 45 7.3 51 51 ESE 7 11 30.3 1026 10 16.0934 0 0
11:35 am 11:35 Sunny 65 18.1 44 6.6 47 47 E 7 11 30.3 1026 10 16.0934 0 0
11:55 am 11:55 Sunny 66 18.9 43 6 43 43 ESE 7 11 30.3 1026 10 16.0934 0 0
12:15 pm 12:15 Sunny 69 20.3 39 3.8 34 34 ESE 10 17 30.27 1025 10 16.0934 0 0
12:35 pm 12:35 Sunny 70 21.3 39 3.7 32 32 ESE 12 19 30.27 1025 10 16.0934 0 0
12:55 pm 12:55 Sunny 70 21.2 38 3.3 31 31 SE 9 15 30.24 1024 10 16.0934 0 0
1:15 pm 13:15 Sunny 71 21.9 38 3.3 30 30 ESE 7 11 30.24 1024 10 16.0934 0 0
1:35 pm 13:35 Sunny 72 22.2 37 2.6 28 28 SE 9 15 30.24 1024 10 16.0934 0 0
1:55 pm 13:55 Sunny 73 22.7 37 2.8 27 27 SSE 7 11 30.24 1024 10 16.0934 0 0
2:15 pm 14:15 Sunny 73 22.9 38 3.2 28 28 SE 8 13 30.24 1024 10 16.0934 0 0
2:35 pm 14:35 Sunny 74 23.4 39 3.9 28 28 SE 5 7 30.21 1023 10 16.0934 0 0
2:55 pm 14:55 Sunny 74 23.5 40 4.4 29 29 S 13 20 30.18 1022 10 16.0934 0 0
3:15 pm 15:15 Sunny 74 23.5 40 4.5 29 29 S 10 17 30.18 1022 10 16.0934 0 0
3:35 pm 15:35 Sunny 74 23.3 41 4.8 30 30 SSE 10 17 30.18 1022 10 16.0934 0 0
3:55 pm 15:55 Sunny 75 23.7 41 5 30 30 S 8 13 30.18 1022 10 16.0934 0 0
4:15 pm 16:15 Sunny 75 23.8 42 5.4 31 31 S 8 13 30.18 1022 10 16.0934 0 0
4:35 pm 16:35 Sunny 74 23.6 42 5.7 32 32 SE 10 17 30.15 1021 10 16.0934 0 0
4:55 pm 16:55 Sunny 75 24.1 44 6.6 33 33 S 10 17 30.15 1021 10 16.0934 0 0
5:15 pm 17:15 Sunny 75 23.8 44 6.6 33 33 SSE 7 11 30.15 1021 10 16.0934 0 0
5:35 pm 17:35 Sunny 75 24.1 45 7.4 34 34 SSW 12 19 30.15 1021 10 16.0934 0 0
5:55 pm 17:55 Sunny 76 24.3 45 7.3 34 34 S 12 19 30.15 1021 10 16.0934 0 0
6:15 pm 18:15 Sunny 75 24.1 48 8.8 38 38 S 14 22 30.15 1021 10 16.0934 0 0
6:35 pm 18:35 Sunny 75 23.7 46 7.5 35 35 S 12 19 30.15 1021 10 16.0934 0 0
6:55 pm 18:55 Sunny 74 23.4 46 7.8 37 37 S 12 19 30.15 1021 10 16.0934 0 0
7:15 pm 19:15 Sunny 73 23 45 7.4 37 37 S 8 13 30.15 1021 10 16.0934 0 0
7:35 pm 19:35 Sunny 73 22.5 47 8.3 40 40 SSE 9 15 30.12 1020 10 16.0934 0 0
7:55 pm 19:55 Sunny 72 22.2 48 8.7 42 42 S 12 19 30.12 1020 10 16.0934 0 0
8:15 pm 20:15 Sunny 71 21.6 48 8.7 44 44 S 12 19 30.15 1021 10 16.0934 0 0
8:35 pm 20:35 Sunny 70 20.9 47 8.3 44 44 S 9 15 30.15 1021 10 16.0934 0 0
8:55 pm 20:55 Sunny 68 20 47 8.2 47 47 S 10 17 30.15 1021 10 16.0934 0 0
9:15 pm 21:15 Clear 66 18.9 48 8.7 52 52 S 8 13 30.15 1021 10 16.0934 0 0
9:35 pm 21:35 Clear 63 17.2 48 9 59 59 S 7 11 30.18 1022 10 16.0934 0 0
9:55 pm 21:55 Clear 60 15.6 49 9.2 66 66 S 7 11 30.18 1022 10 16.0934 0 0
10:15 pm 22:15 Clear 60 15.4 49 9.6 69 69 S 6 9 30.18 1022 10 16.0934 0 0
10:35 pm 22:35 Clear 60 15.4 49 9.6 69 69 S 3 6 30.18 1022 10 16.0934 0 0
10:55 pm 22:55 Clear 60 15.7 50 9.9 69 69 S 5 7 30.18 1022 10 16.0934 0 0
11:15 pm 23:15 Clear 57 14 49 9.7 76 76 S 5 7 30.21 1023 10 16.0934 0 0
11:35 pm 23:35 Clear 58 14.7 51 10.5 76 76 S 6 9 30.21 1023 10 16.0934 0 0
11:55 pm 23:55 Clear 58 14.3 51 10.4 78 78 SSW 3 6 30.21 1023 10 16.0934 0 0

Powered by AerisWeather